"SCET";"TARGET";"ELECTRON_DENSITY";"ERROR_FLAG";"ELECTRON_DENSITY_ERROR";"FREQ_FCE";"MEASURED_VALUE";"MEASURED_ITEM";"FREQ_PLASMA";"FREQ_UPPER_HYBRID";"FREQ_R_EQUALS_ZERO";"FREQ_L_EQUALS_ZERO";"ORBIT_NUMBER";"SATURN_RADIUS";"SATURN_IAU_LONGITUDE";"SATURN_SLS4_S_LONGITUDE";"SATURN_SLS4_N_LONGITUDE";"SATURN_SLS5_S_LONGITUDE";"SATURN_SLS5_N_LONGITUDE";"SATURN_LOCAL_TIME";"SATURN_KRONOGRAPHIC_LATITUDE";"SATURN_MAGNETIC_LATITUDE";"SATURN_L";"SATURN_L_OFFSET";"SATURN_SOLAR_EQUATORIAL_X";"SATURN_SOLAR_EQUATORIAL_Y";"SATURN_SOLAR_EQUATORIAL_Z";"SATURN_ALTITUDE";"ENCELADUS_ENCOUNTER_NUMBER";"ENCELADUS_RADIUS";"ENCELADUS_COROTATIONAL_X";"ENCELADUS_COROTATIONAL_Y";"ENCELADUS_COROTATIONAL_Z";"ENCELADUS_TRUE_ANOMALY";"ENCELADUS_PERIAPSIS_TIME";"JUPITER_RADIUS";"JUPITER_SYSTEMIII_LONGITUDE";"JUPITER_MAGNETIC_LATITUDE";"JUPITER_MAGNETIC_LOCAL_TIME";"JUPITER_L";"IO_PHASE";"EARTH_RADIUS";"EARTH_MAGNETIC_LATITUDE";"EARTH_LOCAL_TIME";"EARTH_L"
"[UTC]";"[0=Saturn, 1=Enceladus, 2=Jupiter, 3=Earth]";"[cm-3]";"[0=automated, 1=manual]";"[normalized density error]";"[Hz]";"[Hz]";"[0=upper hybrid frequency, 1=plasma frequency cutoff]";"[Hz]";"[Hz]";"[Hz]";"[Hz}";"[0, A, B, C, 3, 4, ... , 292, 293]";"[Rs where 1Rs=60268km]";"[degrees]";"[degrees]";"[degrees]";"[degrees]";"[degrees]";"[hours]";"[degrees]";"[degrees where offset=2293km north]";"[Rs where 1Rs=60268km]";"[Rs where 1Rs=60268km and offset=2293km north]";"[Rs where 1Rs=60268km]";"[Rs where 1Rs=60268km]";"[Rs where 1Rs=60268km]";"[km where ellipsoid a,b=60268km and c=54364km]";"[E0, E1, E2, ... , E21, E22]";"[Renc where 1Renc=252.1km]";"[Renc where 1Renc=252.1km]";"[Renc where 1Renc=252.1km]";"[Renc where 1Renc=252.1km]";"[degrees]";"[UTC]";"[Rj where 1Rj=71492km]";"[degrees]";"[degrees using JRM09 model]";"[hours using JRM09 model]";"[Rj where 1Rj=71492km]";"[degrees]";"[Re where 1Re=6378.1366km]";"[degrees]";"[hours]";"[Re where 1Re=6378.1366km]"
2009-07-26T17:36:25.618Z;0;8.0470e+00;0;     0.130;  8896.020;  26981.770; 0;  25473.059;  26981.770;  30306.500;  21410.480;115;   4.010; 122.076; 171.837; 293.994; 191.865; 315.476;   9.112;  -6.945;  -7.484;   4.070;   4.011;   2.896;  -2.731;  -0.485;;;;;;;;;;;;;;;;;;
2009-07-26T17:36:49.618Z;0;8.4000e+00;0;     0.170;  8896.020;  27504.691; 0;  26026.311;  27504.691;  30851.678;  21955.658;115;   4.011; 122.223; 171.982; 294.142; 192.011; 315.621;   9.117;  -6.892;  -7.431;   4.070;   4.012;   2.901;  -2.728;  -0.481;;;;;;;;;;;;;;;;;;
2009-07-26T17:36:57.618Z;0;8.3470e+00;0;     0.178;  8896.020;  27427.678; 0;  25944.910;  27427.678;  30771.443;  21875.424;115;   4.012; 122.272; 172.030; 294.191; 192.059; 315.670;   9.119;  -6.874;  -7.413;   4.070;   4.012;   2.902;  -2.727;  -0.480;;;;;;;;;;;;;;;;;;
2009-07-26T17:37:05.617Z;0;9.0150e+00;0;     0.193;  8867.068;  28383.312; 0;  26962.707;  28383.312;  31758.316;  22891.248;115;   4.012; 122.320; 172.079; 294.240; 192.108; 315.718;   9.120;  -6.857;  -7.395;   4.070;   4.013;   2.904;  -2.726;  -0.479;;;;;;;;;;;;;;;;;;
2009-07-26T17:37:21.617Z;0;8.6890e+00;0;     0.137;  8867.068;  27915.393; 0;  26469.686;  27915.393;  31271.947;  22404.881;115;   4.013; 122.418; 172.176; 294.338; 192.205; 315.815;   9.124;  -6.821;  -7.360;   4.070;   4.013;   2.907;  -2.724;  -0.476;;;;;;;;;;;;;;;;;;
2009-07-26T17:37:29.617Z;0;8.5910e+00;0;     0.142;  8867.068;  27773.777; 0;  26320.293;  27773.777;  31124.619;  22257.551;115;   4.013; 122.467; 172.224; 294.387; 192.253; 315.863;   9.126;  -6.804;  -7.342;   4.070;   4.014;   2.909;  -2.723;  -0.475;;;;;;;;;;;;;;;;;;
2009-07-26T17:37:37.617Z;0;8.6130e+00;0;     0.180;  8867.068;  27806.117; 0;  26354.416;  27806.117;  31158.270;  22291.201;115;   4.014; 122.516; 172.273; 294.436; 192.302; 315.911;   9.127;  -6.786;  -7.325;   4.070;   4.014;   2.911;  -2.723;  -0.474;;;;;;;;;;;;;;;;;;
2009-07-26T17:37:45.617Z;0;8.5000e+00;0;     0.138;  8867.068;  27642.258; 0;  26181.473;  27642.258;  30987.738;  22120.670;115;   4.014; 122.565; 172.321; 294.485; 192.351; 315.959;   9.129;  -6.768;  -7.307;   4.071;   4.015;   2.912;  -2.722;  -0.473;;;;;;;;;;;;;;;;;;
2009-07-26T17:37:53.617Z;0;8.5680e+00;0;     0.144;  8867.068;  27741.457; 0;  26286.186;  27741.457;  31090.986;  22223.918;115;   4.014; 122.614; 172.369; 294.534; 192.399; 316.008;   9.131;  -6.751;  -7.289;   4.071;   4.015;   2.914;  -2.721;  -0.472;;;;;;;;;;;;;;;;;;
2009-07-26T17:38:09.617Z;0;8.6180e+00;0;     0.134;  8838.200;  27804.352; 0;  26362.250;  27804.352;  31149.170;  22310.971;115;   4.015; 122.712; 172.466; 294.632; 192.496; 316.104;   9.134;  -6.716;  -7.254;   4.071;   4.016;   2.917;  -2.719;  -0.469;;;;;;;;;;;;;;;;;;
2009-07-26T17:38:17.617Z;0;8.5770e+00;0;     0.164;  8838.200;  27744.523; 0;  26299.141;  27744.523;  31086.932;  22248.732;115;   4.016; 122.761; 172.515; 294.681; 192.545; 316.152;   9.136;  -6.698;  -7.236;   4.071;   4.016;   2.919;  -2.718;  -0.468;;;;;;;;;;;;;;;;;;
2009-07-26T17:38:25.617Z;0;8.5900e+00;0;     0.127;  8838.200;  27764.256; 0;  26319.957;  27764.256;  31107.461;  22269.260;115;   4.016; 122.810; 172.563; 294.730; 192.594; 316.200;   9.138;  -6.680;  -7.219;   4.071;   4.016;   2.920;  -2.717;  -0.467;;;;;;;;;;;;;;;;;;
2009-07-26T17:38:33.617Z;0;8.5900e+00;0;     0.134;  8838.200;  27763.744; 0;  26319.418;  27763.744;  31106.928;  22268.729;115;   4.016; 122.859; 172.612; 294.780; 192.642; 316.248;   9.139;  -6.663;  -7.201;   4.071;   4.017;   2.922;  -2.716;  -0.466;;;;;;;;;;;;;;;;;;
2009-07-26T17:38:41.617Z;0;9.1070e+00;0;     0.192;  8838.200;  28504.684; 0;  27099.875;  28504.684;  31876.916;  23038.717;115;   4.017; 122.908; 172.660; 294.829; 192.691; 316.297;   9.141;  -6.645;  -7.183;   4.071;   4.017;   2.924;  -2.715;  -0.465;;;;;;;;;;;;;;;;;;
2009-07-26T17:38:57.617Z;0;8.6250e+00;0;     0.179;  8838.200;  27814.367; 0;  26372.812;  27814.367;  31159.588;  22321.389;115;   4.018; 123.006; 172.757; 294.927; 192.788; 316.393;   9.145;  -6.610;  -7.148;   4.072;   4.018;   2.927;  -2.713;  -0.462;;;;;;;;;;;;;;;;;;
2009-07-26T17:39:05.617Z;0;9.2600e+00;0;     0.172;  8809.359;  28711.240; 0;  27326.369;  28711.240;  32083.764;  23274.404;115;   4.018; 123.055; 172.806; 294.976; 192.837; 316.441;   9.146;  -6.592;  -7.130;   4.072;   4.018;   2.929;  -2.712;  -0.461;;;;;;;;;;;;;;;;;;
2009-07-26T17:39:13.617Z;0;8.7690e+00;0;     0.126;  8809.359;  28012.646; 0;  26591.418;  28012.646;  31358.432;  22549.072;115;   4.018; 123.104; 172.854; 295.025; 192.886; 316.489;   9.148;  -6.575;  -7.113;   4.072;   4.019;   2.930;  -2.711;  -0.460;;;;;;;;;;;;;;;;;;
2009-07-26T17:39:21.617Z;0;8.7680e+00;0;     0.137;  8809.359;  28012.305; 0;  26591.059;  28012.305;  31358.076;  22548.717;115;   4.019; 123.153; 172.903; 295.074; 192.934; 316.537;   9.150;  -6.557;  -7.095;   4.072;   4.019;   2.932;  -2.710;  -0.459;;;;;;;;;;;;;;;;;;
2009-07-26T17:39:29.616Z;0;8.6870e+00;0;     0.129;  8809.359;  27894.318; 0;  26466.736;  27894.318;  31235.434;  22426.074;115;   4.019; 123.202; 172.951; 295.124; 192.983; 316.585;   9.152;  -6.539;  -7.078;   4.072;   4.020;   2.933;  -2.709;  -0.458;;;;;;;;;;;;;;;;;;
2009-07-26T17:39:45.616Z;0;8.8010e+00;0;     0.137;  8809.359;  28059.090; 0;  26640.340;  28059.090;  31406.697;  22597.336;115;   4.020; 123.301; 173.048; 295.222; 193.080; 316.682;   9.155;  -6.504;  -7.042;   4.072;   4.020;   2.937;  -2.707;  -0.455;;;;;;;;;;;;;;;;;;
2009-07-26T17:39:53.616Z;0;8.9010e+00;0;     0.123;  8809.359;  28202.035; 0;  26790.855;  28202.035;  31555.207;  22745.848;115;   4.020; 123.350; 173.097; 295.271; 193.129; 316.730;   9.157;  -6.487;  -7.025;   4.072;   4.021;   2.938;  -2.706;  -0.454;;;;;;;;;;;;;;;;;;
2009-07-26T17:40:01.616Z;0;9.3840e+00;0;     0.167;  8780.353;  28875.350; 0;  27508.021;  28875.350;  32246.322;  23465.971;115;   4.021; 123.399; 173.145; 295.320; 193.178; 316.778;   9.159;  -6.469;  -7.007;   4.073;   4.021;   2.940;  -2.705;  -0.453;;;;;;;;;;;;;;;;;;
2009-07-26T17:40:09.616Z;0;9.4290e+00;0;     0.152;  8780.353;  28938.605; 0;  27574.414;  28938.605;  32311.887;  23531.535;115;   4.021; 123.448; 173.194; 295.370; 193.226; 316.827;   9.160;  -6.451;  -6.989;   4.073;   4.022;   2.942;  -2.704;  -0.452;;;;;;;;;;;;;;;;;;
2009-07-26T17:40:17.616Z;0;9.3980e+00;0;     0.156;  8780.353;  28894.910; 0;  27528.553;  28894.910;  32266.598;  23486.246;115;   4.022; 123.497; 173.243; 295.419; 193.275; 316.875;   9.162;  -6.434;  -6.972;   4.073;   4.022;   2.943;  -2.703;  -0.451;;;;;;;;;;;;;;;;;;
2009-07-26T17:40:25.616Z;0;9.2430e+00;0;     0.142;  8780.353;  28678.799; 0;  27301.629;  28678.799;  32042.527;  23262.176;115;   4.022; 123.546; 173.291; 295.468; 193.324; 316.924;   9.164;  -6.416;  -6.954;   4.073;   4.022;   2.945;  -2.702;  -0.449;;;;;;;;;;;;;;;;;;
2009-07-26T17:40:33.616Z;0;8.8990e+00;0;     0.111;  8780.353;  28191.109; 0;  26788.879;  28191.109;  31536.404;  22756.053;115;   4.022; 123.595; 173.340; 295.517; 193.373; 316.973;   9.165;  -6.399;  -6.936;   4.073;   4.023;   2.946;  -2.701;  -0.448;;;;;;;;;;;;;;;;;;
2009-07-26T17:40:57.616Z;0;9.4190e+00;0;     0.152;  8780.353;  28924.629; 0;  27559.746;  28924.629;  32297.400;  23517.049;115;   4.024; 123.743; 173.486; 295.665; 193.519; 317.119;   9.171;  -6.346;  -6.884;   4.073;   4.024;   2.951;  -2.698;  -0.445;;;;;;;;;;;;;;;;;;
2009-07-26T17:41:13.616Z;0;1.0000e+01;0;     0.154;  8751.399;  29720.074; 0;  28402.391;  29720.074;  33113.176;  24361.777;115;   4.025; 123.841; 173.583; 295.763; 193.617; 317.217;   9.174;  -6.311;  -6.848;   4.074;   4.025;   2.955;  -2.697;  -0.442;;;;;;;;;;;;;;;;;;
2009-07-26T17:41:21.616Z;0;9.8130e+00;0;     0.165;  8751.399;  29460.736; 0;  28130.908;  29460.736;  32844.891;  24093.490;115;   4.025; 123.890; 173.631; 295.813; 193.665; 317.265;   9.176;  -6.293;  -6.831;   4.074;   4.025;   2.956;  -2.696;  -0.441;;;;;;;;;;;;;;;;;;
2009-07-26T17:41:29.616Z;0;1.0070e+01;0;     0.149;  8751.399;  29812.707; 0;  28499.307;  29812.707;  33208.965;  24457.566;115;   4.025; 123.939; 173.680; 295.862; 193.714; 317.314;   9.178;  -6.276;  -6.813;   4.074;   4.026;   2.958;  -2.695;  -0.440;;;;;;;;;;;;;;;;;;
2009-07-26T17:41:37.616Z;0;9.9200e+00;0;     0.141;  8751.399;  29606.047; 0;  28283.051;  29606.047;  32995.234;  24243.834;115;   4.026; 123.988; 173.729; 295.911; 193.763; 317.363;   9.179;  -6.258;  -6.796;   4.074;   4.026;   2.959;  -2.694;  -0.439;;;;;;;;;;;;;;;;;;
2009-07-26T17:41:45.615Z;0;9.9480e+00;0;     0.149;  8751.399;  29644.971; 0;  28323.793;  29644.971;  33035.500;  24284.098;115;   4.026; 124.038; 173.777; 295.961; 193.812; 317.412;   9.181;  -6.240;  -6.778;   4.074;   4.026;   2.961;  -2.693;  -0.438;;;;;;;;;;;;;;;;;;
2009-07-26T17:41:53.615Z;0;1.0270e+01;0;     0.162;  8751.399;  30081.750; 0;  28780.631;  30081.750;  33487.062;  24735.662;115;   4.027; 124.087; 173.826; 296.010; 193.860; 317.460;   9.183;  -6.223;  -6.760;   4.074;   4.027;   2.963;  -2.692;  -0.436;;;;;;;;;;;;;;;;;;
2009-07-26T17:42:01.615Z;0;1.0150e+01;0;     0.143;  8722.308;  29907.443; 0;  28607.281;  29907.443;  33298.953;  24576.645;115;   4.027; 124.136; 173.875; 296.059; 193.909; 317.509;   9.184;  -6.205;  -6.743;   4.075;   4.027;   2.964;  -2.691;  -0.435;;;;;;;;;;;;;;;;;;
2009-07-26T17:42:09.615Z;0;1.0350e+01;0;     0.142;  8722.308;  30172.594; 0;  28884.369;  30172.594;  33572.906;  24850.598;115;   4.027; 124.185; 173.923; 296.108; 193.958; 317.558;   9.186;  -6.188;  -6.725;   4.075;   4.028;   2.966;  -2.690;  -0.434;;;;;;;;;;;;;;;;;;
2009-07-26T17:42:17.615Z;0;1.0050e+01;0;     0.143;  8722.308;  29776.830; 0;  28470.703;  29776.830;  33163.941;  24441.635;115;   4.028; 124.234; 173.972; 296.158; 194.007; 317.607;   9.188;  -6.170;  -6.708;   4.075;   4.028;   2.968;  -2.689;  -0.433;;;;;;;;;;;;;;;;;;
2009-07-26T17:42:25.615Z;0;1.0140e+01;0;     0.126;  8722.308;  29898.818; 0;  28598.264;  29898.818;  33290.039;  24567.730;115;   4.028; 124.284; 174.021; 296.207; 194.056; 317.656;   9.190;  -6.153;  -6.690;   4.075;   4.028;   2.969;  -2.688;  -0.432;;;;;;;;;;;;;;;;;;
2009-07-26T17:42:33.615Z;0;1.0040e+01;0;     0.135;  8722.308;  29767.162; 0;  28460.592;  29767.162;  33153.945;  24431.639;115;   4.029; 124.333; 174.069; 296.256; 194.105; 317.705;   9.191;  -6.135;  -6.672;   4.075;   4.029;   2.971;  -2.687;  -0.430;;;;;;;;;;;;;;;;;;
2009-07-26T17:42:41.615Z;0;1.0240e+01;0;     0.149;  8722.308;  30035.424; 0;  28741.051;  30035.424;  33431.203;  24708.895;115;   4.029; 124.382; 174.118; 296.306; 194.153; 317.754;   9.193;  -6.117;  -6.655;   4.075;   4.029;   2.972;  -2.686;  -0.429;;;;;;;;;;;;;;;;;;
2009-07-26T17:42:49.615Z;0;1.0300e+01;0;     0.141;  8722.308;  30109.191; 0;  28818.133;  30109.191;  33507.414;  24785.105;115;   4.030; 124.431; 174.167; 296.355; 194.202; 317.802;   9.195;  -6.100;  -6.637;   4.076;   4.030;   2.974;  -2.685;  -0.428;;;;;;;;;;;;;;;;;;
2009-07-26T17:42:57.615Z;0;1.0560e+01;0;     0.137;  8722.308;  30452.062; 0;  29176.180;  30452.062;  33861.477;  25139.170;115;   4.030; 124.481; 174.216; 296.404; 194.251; 317.851;   9.197;  -6.082;  -6.620;   4.076;   4.030;   2.976;  -2.684;  -0.427;;;;;;;;;;;;;;;;;;
2009-07-26T17:43:05.615Z;0;1.0320e+01;0;     0.141;  8693.412;  30127.664; 0;  28846.156;  30127.664;  33518.516;  24825.105;115;   4.030; 124.530; 174.264; 296.454; 194.300; 317.900;   9.198;  -6.065;  -6.602;   4.076;   4.030;   2.977;  -2.683;  -0.426;;;;;;;;;;;;;;;;;;
2009-07-26T17:43:13.615Z;0;1.0330e+01;0;     0.139;  8693.412;  30143.816; 0;  28863.025;  30143.816;  33535.199;  24841.787;115;   4.031; 124.579; 174.313; 296.503; 194.349; 317.949;   9.200;  -6.047;  -6.584;   4.076;   4.031;   2.979;  -2.682;  -0.425;;;;;;;;;;;;;;;;;;
2009-07-26T17:43:21.615Z;0;1.0310e+01;0;     0.144;  8693.412;  30119.727; 0;  28837.865;  30119.727;  33510.320;  24816.908;115;   4.031; 124.628; 174.362; 296.553; 194.398; 317.998;   9.202;  -6.030;  -6.567;   4.076;   4.031;   2.980;  -2.681;  -0.423;;;;;;;;;;;;;;;;;;
2009-07-26T17:43:29.615Z;0;1.0600e+01;0;     0.141;  8693.412;  30499.062; 0;  29233.840;  30499.062;  33901.930;  25208.518;115;   4.032; 124.678; 174.410; 296.602; 194.447; 318.047;   9.203;  -6.012;  -6.549;   4.076;   4.032;   2.982;  -2.680;  -0.422;;;;;;;;;;;;;;;;;;
2009-07-26T17:43:37.615Z;0;1.0600e+01;0;     0.130;  8693.412;  30498.412; 0;  29233.162;  30498.412;  33901.258;  25207.846;115;   4.032; 124.727; 174.459; 296.651; 194.496; 318.096;   9.205;  -5.995;  -6.532;   4.077;   4.032;   2.984;  -2.679;  -0.421;;;;;;;;;;;;;;;;;;
2009-07-26T17:43:45.615Z;0;1.0300e+01;0;     0.128;  8693.412;  30103.299; 0;  28820.707;  30103.299;  33493.352;  24799.941;115;   4.032; 124.776; 174.508; 296.701; 194.545; 318.145;   9.207;  -5.977;  -6.514;   4.077;   4.032;   2.985;  -2.678;  -0.420;;;;;;;;;;;;;;;;;;
2009-07-26T17:43:53.615Z;0;1.0540e+01;0;     0.131;  8693.412;  30419.924; 0;  29151.268;  30419.924;  33820.258;  25126.846;115;   4.033; 124.826; 174.557; 296.750; 194.594; 318.194;   9.209;  -5.960;  -6.497;   4.077;   4.033;   2.987;  -2.677;  -0.419;;;;;;;;;;;;;;;;;;
2009-07-26T17:44:01.615Z;0;1.0670e+01;0;     0.131;  8664.601;  30586.639; 0;  29333.721;  30586.639;  33984.215;  25319.613;115;   4.033; 124.875; 174.606; 296.800; 194.642; 318.242;   9.210;  -5.942;  -6.479;   4.077;   4.033;   2.989;  -2.676;  -0.417;;;;;;;;;;;;;;;;;;
2009-07-26T17:44:09.614Z;0;1.0890e+01;0;     0.131;  8664.601;  30878.346; 0;  29637.762;  30878.346;  34285.027;  25620.426;115;   4.034; 124.924; 174.654; 296.849; 194.691; 318.291;   9.212;  -5.925;  -6.461;   4.077;   4.034;   2.990;  -2.675;  -0.416;;;;;;;;;;;;;;;;;;
2009-07-26T17:44:17.614Z;0;1.0800e+01;0;     0.125;  8664.601;  30752.793; 0;  29506.932;  30752.793;  34155.578;  25490.977;115;   4.034; 124.973; 174.703; 296.898; 194.740; 318.340;   9.214;  -5.907;  -6.444;   4.077;   4.034;   2.992;  -2.674;  -0.415;;;;;;;;;;;;;;;;;;
2009-07-26T17:44:25.614Z;0;1.0910e+01;0;     0.125;  8664.601;  30899.732; 0;  29660.043;  30899.732;  34307.074;  25642.473;115;   4.035; 125.023; 174.752; 296.948; 194.789; 318.389;   9.215;  -5.890;  -6.426;   4.078;   4.035;   2.993;  -2.673;  -0.414;;;;;;;;;;;;;;;;;;
2009-07-26T17:44:33.614Z;0;1.0980e+01;0;     0.137;  8664.601;  30990.592; 0;  29754.688;  30990.592;  34400.727;  25736.127;115;   4.035; 125.072; 174.801; 296.997; 194.838; 318.438;   9.217;  -5.872;  -6.409;   4.078;   4.035;   2.995;  -2.672;  -0.413;;;;;;;;;;;;;;;;;;
2009-07-26T17:44:41.614Z;0;1.0990e+01;0;     0.123;  8664.601;  31006.357; 0;  29771.109;  31006.357;  34416.977;  25752.375;115;   4.035; 125.121; 174.849; 297.047; 194.887; 318.487;   9.219;  -5.854;  -6.391;   4.078;   4.035;   2.997;  -2.671;  -0.411;;;;;;;;;;;;;;;;;;
2009-07-26T17:44:49.614Z;0;1.0940e+01;0;     0.121;  8664.601;  30937.512; 0;  29699.400;  30937.512;  34346.016;  25681.416;115;   4.036; 125.171; 174.898; 297.096; 194.936; 318.536;   9.221;  -5.837;  -6.374;   4.078;   4.036;   2.998;  -2.670;  -0.410;;;;;;;;;;;;;;;;;;
2009-07-26T17:44:57.614Z;0;1.1020e+01;0;     0.113;  8664.601;  31050.234; 0;  29816.803;  31050.234;  34462.195;  25797.596;115;   4.036; 125.220; 174.947; 297.146; 194.985; 318.585;   9.222;  -5.819;  -6.356;   4.078;   4.036;   3.000;  -2.669;  -0.409;;;;;;;;;;;;;;;;;;
2009-07-26T17:45:05.614Z;0;1.1060e+01;0;     0.130;  8635.844;  31082.410; 0;  29858.641;  31082.410;  34487.160;  25851.314;115;   4.037; 125.270; 174.996; 297.195; 195.034; 318.634;   9.224;  -5.802;  -6.339;   4.078;   4.037;   3.001;  -2.668;  -0.408;;;;;;;;;;;;;;;;;;
2009-07-26T17:45:13.614Z;0;1.1050e+01;0;     0.127;  8635.844;  31080.830; 0;  29856.996;  31080.830;  34485.531;  25849.688;115;   4.037; 125.319; 175.045; 297.245; 195.083; 318.683;   9.226;  -5.784;  -6.321;   4.079;   4.037;   3.003;  -2.667;  -0.407;;;;;;;;;;;;;;;;;;
2009-07-26T17:45:21.614Z;0;1.0860e+01;0;     0.108;  8635.844;  30831.332; 0;  29597.184;  30831.332;  34228.418;  25592.572;115;   4.038; 125.368; 175.094; 297.294; 195.132; 318.732;   9.227;  -5.767;  -6.304;   4.079;   4.037;   3.005;  -2.666;  -0.406;;;;;;;;;;;;;;;;;;
2009-07-26T17:45:29.614Z;0;1.1130e+01;0;     0.127;  8635.844;  31176.717; 0;  29956.801;  31176.717;  34584.312;  25948.467;115;   4.038; 125.418; 175.142; 297.344; 195.181; 318.781;   9.229;  -5.749;  -6.286;   4.079;   4.038;   3.006;  -2.665;  -0.404;;;;;;;;;;;;;;;;;;
2009-07-26T17:45:37.614Z;0;1.1080e+01;0;     0.111;  8635.844;  31118.680; 0;  29896.395;  31118.680;  34524.523;  25888.682;115;   4.038; 125.467; 175.191; 297.393; 195.230; 318.830;   9.231;  -5.732;  -6.268;   4.079;   4.038;   3.008;  -2.664;  -0.403;;;;;;;;;;;;;;;;;;
2009-07-26T17:45:45.614Z;0;1.1220e+01;0;     0.119;  8635.844;  31288.871; 0;  30073.504;  31288.871;  34699.828;  26063.982;115;   4.039; 125.516; 175.240; 297.443; 195.279; 318.879;   9.233;  -5.714;  -6.251;   4.079;   4.039;   3.009;  -2.663;  -0.402;;;;;;;;;;;;;;;;;;
2009-07-26T17:45:53.614Z;0;1.1710e+01;0;     0.129;  8635.844;  31919.229; 0;  30728.803;  31919.229;  35348.613;  26712.770;115;   4.039; 125.566; 175.289; 297.492; 195.328; 318.928;   9.234;  -5.697;  -6.233;   4.079;   4.039;   3.011;  -2.662;  -0.401;;;;;;;;;;;;;;;;;;
2009-07-26T17:46:01.614Z;0;1.1650e+01;0;     0.123;  8607.032;  31836.021; 0;  30650.469;  31836.021;  35254.633;  26647.600;115;   4.040; 125.615; 175.338; 297.542; 195.377; 318.977;   9.236;  -5.679;  -6.216;   4.080;   4.040;   3.013;  -2.661;  -0.400;;;;;;;;;;;;;;;;;;
2009-07-26T17:46:09.614Z;0;1.1030e+01;0;     0.100;  8607.032;  31043.184; 0;  29826.133;  31043.184;  34438.520;  25831.488;115;   4.040; 125.665; 175.387; 297.591; 195.426; 319.026;   9.238;  -5.662;  -6.198;   4.080;   4.040;   3.014;  -2.660;  -0.398;;;;;;;;;;;;;;;;;;
2009-07-26T17:46:17.614Z;0;1.1700e+01;0;     0.140;  8607.032;  31896.686; 0;  30713.475;  31896.686;  35317.027;  26709.994;115;   4.041; 125.714; 175.436; 297.641; 195.475; 319.075;   9.239;  -5.645;  -6.181;   4.080;   4.040;   3.016;  -2.659;  -0.397;;;;;;;;;;;;;;;;;;
2009-07-26T17:46:25.613Z;0;1.1540e+01;0;     0.131;  8607.032;  31699.723; 0;  30508.875;  31699.723;  35114.418;  26507.385;115;   4.041; 125.763; 175.485; 297.690; 195.524; 319.124;   9.241;  -5.627;  -6.163;   4.080;   4.041;   3.017;  -2.658;  -0.396;;;;;;;;;;;;;;;;;;
2009-07-26T17:46:33.613Z;0;1.1800e+01;0;     0.127;  8607.032;  32022.547; 0;  30844.164;  32022.547;  35446.457;  26839.424;115;   4.041; 125.813; 175.533; 297.740; 195.573; 319.173;   9.243;  -5.610;  -6.146;   4.080;   4.041;   3.019;  -2.657;  -0.395;;;;;;;;;;;;;;;;;;
2009-07-26T17:46:41.613Z;0;1.1840e+01;0;     0.135;  8607.032;  32075.750; 0;  30899.396;  32075.750;  35501.160;  26894.127;115;   4.042; 125.862; 175.582; 297.789; 195.622; 319.222;   9.245;  -5.592;  -6.128;   4.081;   4.042;   3.021;  -2.656;  -0.394;;;;;;;;;;;;;;;;;;
2009-07-26T17:46:49.613Z;0;1.1990e+01;0;     0.122;  8607.032;  32258.840; 0;  31089.416;  32258.840;  35689.371;  27082.340;115;   4.042; 125.912; 175.631; 297.839; 195.671; 319.271;   9.246;  -5.575;  -6.111;   4.081;   4.042;   3.022;  -2.655;  -0.393;;;;;;;;;;;;;;;;;;
2009-07-26T17:46:57.613Z;0;1.1950e+01;0;     0.123;  8607.032;  32211.537; 0;  31040.330;  32211.537;  35640.754;  27033.721;115;   4.043; 125.961; 175.680; 297.888; 195.721; 319.321;   9.248;  -5.557;  -6.093;   4.081;   4.042;   3.024;  -2.654;  -0.391;;;;;;;;;;;;;;;;;;
2009-07-26T17:47:05.613Z;0;1.2120e+01;0;     0.139;  8578.388;  32414.311; 0;  31258.580;  32414.311;  35840.676;  27262.287;115;   4.043; 126.011; 175.729; 297.938; 195.770; 319.370;   9.250;  -5.540;  -6.076;   4.081;   4.043;   3.025;  -2.653;  -0.390;;;;;;;;;;;;;;;;;;
2009-07-26T17:47:13.613Z;0;1.2120e+01;0;     0.129;  8578.388;  32415.094; 0;  31259.391;  32415.094;  35841.480;  27263.092;115;   4.044; 126.060; 175.778; 297.988; 195.819; 319.419;   9.251;  -5.522;  -6.058;   4.081;   4.043;   3.027;  -2.653;  -0.389;;;;;;;;;;;;;;;;;;
2009-07-26T17:47:21.613Z;0;1.2220e+01;0;     0.134;  8578.388;  32538.582; 0;  31387.428;  32538.582;  35968.332;  27389.943;115;   4.044; 126.110; 175.827; 298.037; 195.868; 319.468;   9.253;  -5.505;  -6.041;   4.082;   4.044;   3.029;  -2.652;  -0.388;;;;;;;;;;;;;;;;;;
2009-07-26T17:47:29.613Z;0;1.1990e+01;0;     0.118;  8578.388;  32253.318; 0;  31091.604;  32253.318;  35675.258;  27096.869;115;   4.044; 126.159; 175.876; 298.087; 195.917; 319.517;   9.255;  -5.487;  -6.023;   4.082;   4.044;   3.030;  -2.651;  -0.387;;;;;;;;;;;;;;;;;;
2009-07-26T17:47:37.613Z;0;1.2120e+01;0;     0.126;  8578.388;  32417.695; 0;  31262.090;  32417.695;  35844.152;  27265.764;115;   4.045; 126.209; 175.925; 298.136; 195.966; 319.566;   9.256;  -5.470;  -6.006;   4.082;   4.045;   3.032;  -2.650;  -0.385;;;;;;;;;;;;;;;;;;
2009-07-26T17:47:45.613Z;0;1.2000e+01;0;     0.108;  8578.388;  32267.891; 0;  31106.721;  32267.891;  35690.230;  27111.844;115;   4.045; 126.258; 175.974; 298.186; 196.015; 319.615;   9.258;  -5.452;  -5.988;   4.082;   4.045;   3.033;  -2.649;  -0.384;;;;;;;;;;;;;;;;;;
2009-07-26T17:47:53.613Z;0;1.2120e+01;0;     0.112;  8578.388;  32424.424; 0;  31269.066;  32424.424;  35851.066;  27272.678;115;   4.046; 126.308; 176.023; 298.236; 196.064; 319.664;   9.260;  -5.435;  -5.971;   4.082;   4.045;   3.035;  -2.648;  -0.383;;;;;;;;;;;;;;;;;;
2009-07-26T17:48:01.613Z;0;1.2440e+01;0;     0.133;  8549.716;  32808.031; 0;  31674.426;  32808.031;  36236.453;  27686.740;115;   4.046; 126.357; 176.072; 298.285; 196.113; 319.713;   9.262;  -5.417;  -5.953;   4.083;   4.046;   3.037;  -2.647;  -0.382;;;;;;;;;;;;;;;;;;
2009-07-26T17:48:09.613Z;0;1.2280e+01;0;     0.125;  8549.716;  32607.564; 0;  31466.738;  32607.564;  36030.645;  27480.930;115;   4.047; 126.407; 176.121; 298.335; 196.163; 319.763;   9.263;  -5.400;  -5.936;   4.083;   4.046;   3.038;  -2.646;  -0.381;;;;;;;;;;;;;;;;;;